Probability
3 1 1 2 2 1 0 0 0 1 2 2 1 0 0 1 1 1 2 3 4 4 4 4 3 3 3 3 2 2 2 3 3 3 3 3 3 3 1 0 0 0 0
3 2 2 2 2 1 1 1 0 1 2 2 1 0 0 2 3 2 2 3 3 5 5 4 3 4 3 2 1 1 1 2 3 3 3 3 3 3 2 1 1 0 0
4 4 3 2 1 2 2 2 0 0 1 1 1 0 0 2 3 3 3 3 3 5 5 5 5 5 4 2 1 1 0 1 2 3 3 3 3 3 3 3 2 1 1
5 4 3 2 1 1 1 1 0 0 0 0 0 0 0 1 2 3 3 3 3 4 5 7 7 7 6 4 4 3 1 0 1 3 3 3 3 3 3 3 3 3 2
4 4 3 2 0 0 0 0 0 0 0 0 0 0 0 1 1 1 2 2 3 4 5 7 8 8 7 6 5 5 3 2 2 3 3 4 4 4 3 3 3 3 3
3 3 2 1 0 0 0 0 0 0 0 0 0 0 0 0 0 0 1 1 1 2 3 5 7 7 7 6 5 4 4 4 3 3 3 5 6 5 4 3 3 3 3
3 2 1 1 0 0 0 0 0 0 0 0 0 0 0 0 0 0 0 0 0 1 2 3 4 6 7 7 5 4 5 5 4 2 3 5 6 6 5 4 4 3 3
3 2 1 1 0 0 0 0 0 0 0 0 0 0 0 0 0 0 0 0 0 2 2 2 2 4 7 8 5 4 5 6 5 3 3 5 7 7 7 6 6 4 4
3 2 1 0 0 0 0 0 0 0 0 0 0 0 0 0 0 0 0 0 0 1 3 2 1 2 4 7 6 3 4 6 6 5 5 5 5 5 6 7 7 5 4
2 1 0 0 0 0 0 0 0 0 0 0 0 0 0 0 0 0 0 0 0 0 1 1 1 0 1 3 4 2 1 2 4 5 6 6 5 3 4 4 5 5 4
2 1 0 0 0 0 0 0 0 0 0 0 0 0 0 0 0 0 0 0 0 0 0 0 0 0 0 1 1 0 0 0 1 2 5 7 6 6 5 4 3 2 1
1 0 0 0 0 0 0 0 0 0 0 0 0 0 0 0 0 0 0 0 0 0 0 0 0 0 0 1 1 0 0 0 0 0 2 4 6 8 8 6 4 2 1
0 0 0 0 0 0 0 0 0 0 0 0 0 0 0 0 0 0 0 0 0 0 0 0 0 0 1 2 2 1 0 0 0 0 0 1 3 5 6 5 4 3 2
0 0 0 0 0 0 0 0 0 0 0 0 0 0 0 0 0 0 0 0 0 0 0 0 0 0 1 2 2 1 0 0 0 0 0 0 0 1 2 2 2 2 2
0 0 0 0 0 0 0 0 0 0 0 0 0 0 0 0 0 0 0 0 0 0 0 0 0 0 0 1 1 0 0 0 0 0 0 0 0 0 0 1 1 0 1
0 0 0 0 0 0 0 0 0 0 0 0 0 0 0 0 0 0 0 0 0 0 0 0 0 0 0 0 0 0 0 0 0 0 0 0 0 0 0 0 0 0 0
1 0 0 0 0 0 0 0 0 0 0 0 0 0 0 0 0 0 0 0 0 0 0 0 0 0 0 0 0 0 0 0 0 0 0 0 0 0 0 0 0 0 0
3 2 1 1 1 0 0 0 0 0 0 0 0 0 0 0 0 0 0 0 0 0 0 0 0 0 0 0 0 0 0 0 0 0 0 0 0 0 0 0 0 0 0
5 5 3 3 2 1 1 0 0 0 0 0 0 0 0 0 0 0 0 0 0 0 0 0 0 0 0 0 0 0 0 0 0 0 0 0 0 0 0 0 0 0 0
6 6 5 4 3 3 2 1 0 0 0 0 0 0 0 0 0 0 0 1 1 0 0 0 0 0 0 0 0 0 0 0 0 0 0 1 1 1 0 0 0 0 0
6 5 4 3 3 3 2 1 0 0 0 0 0 1 1 1 0 0 0 1 1 0 0 0 0 0 0 0 0 0 1 1 1 0 0 1 2 2 1 1 0 0 0
5 5 4 3 3 3 1 1 0 0 0 1 2 3 2 1 0 0 0 1 1 0 0 0 0 0 0 0 0 0 1 2 2 1 1 1 3 3 2 1 0 0 0
9 9 7 6 5 3 1 0 0 0 1 2 5 6 4 2 0 0 0 0 0 0 0 0 0 0 0 0 0 0 0 1 2 2 2 1 2 3 2 1 0 0 0
17 16 13 12 11 7 2 0 0 0 1 3 6 8 7 4 1 0 0 0 0 0 0 0 0 0 0 0 1 0 0 0 1 3 2 1 2 3 2 1 0 0 0
21 19 18 18 19 13 4 0 0 0 1 3 6 7 6 4 1 0 0 0 0 0 0 0 0 0 0 0 0 0 0 0 1 2 2 1 1 2 2 1 1 1 1
21 18 18 21 22 17 6 0 0 0 1 4 7 6 4 2 1 0 1 1 1 1 1 1 0 0 0 0 0 0 0 0 0 1 2 2 1 1 1 1 1 2 1
Wind_Speed
2 2 1 0 1 0 1 1 1 2 2 3 3 4 4 4 4 5 2 6 5 7 9 11 12 12 13 13 13 13 13 13 12 11 11 11 11 11 11 10 10 9 9
2 1 2 1 0 0 0 1 1 2 2 2 3 3 4 4 4 5 5 4 8 7 8 10 12 13 14 14 14 14 14 14 13 13 12 12 11 12 12 11 11 10 9
3 2 2 1 1 1 1 0 1 2 2 3 3 3 3 4 4 5 5 5 5 9 9 9 11 13 14 15 15 15 15 14 14 14 13 13 12 12 12 12 11 11 10
3 2 2 2 2 1 1 1 1 2 2 3 2 3 3 3 4 5 5 5 5 5 8 10 10 11 13 15 16 16 16 15 14 14 14 14 14 13 13 13 12 12 11
4 2 2 2 1 1 0 1 1 2 2 3 3 3 3 3 3 5 4 6 5 5 5 6 9 10 12 15 16 17 17 16 16 15 15 15 15 14 14 14 14 13 13
4 2 3 3 1 1 1 1 1 1 3 3 5 3 4 4 3 3 4 4 4 5 6 5 5 8 12 13 14 16 17 17 17 17 17 17 17 16 15 16 15 15 14
4 2 2 3 0 1 1 1 2 1 2 3 5 4 3 4 2 2 2 3 3 3 4 4 5 4 5 12 13 14 15 16 17 18 18 18 18 17 17 17 17 16 16
4 3 1 2 1 1 1 0 2 3 2 2 4 5 4 3 4 1 2 2 2 3 3 3 3 4 6 4 6 12 13 14 16 17 18 18 17 17 17 18 18 18 17
4 2 2 1 1 2 1 1 2 2 3 2 3 5 5 4 3 2 0 1 2 3 4 3 5 4 5 4 4 8 10 12 15 16 18 18 17 16 18 19 19 19 19
3 3 3 2 2 2 1 3 0 2 3 3 1 2 4 5 6 3 2 1 1 3 3 5 4 4 4 4 2 1 3 7 11 14 16 17 18 18 18 19 21 21 21
4 3 3 3 3 2 1 2 1 3 3 4 3 3 3 3 5 6 5 4 4 3 3 4 4 4 4 3 3 1 1 3 5 9 11 13 15 17 18 20 22 22 21
4 4 4 3 3 2 2 2 2 3 3 3 4 4 4 4 4 5 6 6 5 4 4 4 5 4 4 4 1 4 2 3 3 5 7 9 12 15 18 19 21 22 22
4 5 4 3 2 2 2 2 3 3 3 3 4 4 4 4 5 5 6 6 7 6 4 5 3 3 4 3 1 3 3 1 3 4 6 7 9 11 14 16 17 19 20
3 4 4 3 3 3 3 3 4 3 3 4 4 4 5 4 4 5 6 7 7 6 5 4 3 3 3 4 2 4 5 2 3 5 6 7 8 9 10 11 13 14 15
3 5 5 4 4 4 3 4 3 3 3 5 4 4 5 4 4 5 5 6 7 8 7 3 4 3 4 5 2 6 7 1 3 6 7 7 7 8 9 9 11 12 13
4 5 5 5 5 5 5 5 5 4 4 4 4 4 5 5 4 5 5 6 6 8 8 7 5 6 5 7 4 7 9 6 10 10 9 8 8 9 9 10 10 11 12
6 6 6 5 5 5 5 5 5 4 6 5 5 5 6 6 6 6 5 6 6 7 9 8 7 6 6 9 8 8 9 9 9 11 9 9 9 10 11 11 11 11 12
7 7 6 6 6 6 6 6 6 6 6 6 6 6 7 6 6 7 6 7 7 7 9 10 9 8 8 8 8 9 10 9 9 6 10 10 11 11 12 12 12 12 12
7 7 7 7 7 6 6 7 7 7 7 7 7 7 8 7 8 7 7 8 7 7 7 9 10 7 8 8 8 9 11 8 11 9 10 13 13 13 12 13 13 13 13
8 8 8 8 8 8 8 7 7 7 8 8 8 8 9 9 9 9 8 9 8 9 8 9 9 8 8 8 7 9 9 8 8 9 9 8 10 13 14 14 14 14 14
9 9 8 8 9 8 8 8 7 8 8 9 9 9 10 8 7 8 9 9 8 8 9 9 9 9 8 7 7 8 9 8 8 8 9 9 9 10 11 15 17 16 15
9 9 9 9 10 8 5 6 8 9 8 9 10 10 10 10 12 14 14 14 12 12 12 10 10 10 10 9 8 8 9 9 9 7 7 9 9 9 9 10 10 14 15
9 9 10 10 10 9 7 10 11 10 11 10 10 10 10 9 8 11 13 17 17 18 17 14 14 13 12 10 10 11 10 11 11 9 9 11 10 10 10 10 8 10 12
9 9 10 10 10 9 10 12 11 12 12 12 12 12 12 12 11 10 12 12 13 13 14 15 14 14 13 11 10 11 12 12 13 11 11 12 11 10 10 9 10 14 14
9 9 9 10 10 10 10 12 11 10 11 13 13 13 13 14 11 9 12 13 14 13 13 15 15 14 12 11 10 10 12 12 12 11 9 11 11 11 10 10 10 15 15
8 9 9 9 10 10 8 10 11 9 11 11 11 12 13 15 12 11 12 13 14 13 13 11 12 15 16 16 16 15 13 13 12 12 9 9 10 10 11 10 9 8 11
Wind_Direction
173 154 163 187 237 226 198 228 257 247 250 249 251 250 257 261 270 270 203 169 210 224 223 220 217 219 220 218 216 213 211 208 203 199 198 196 192 190 189 189 185 181 179
147 163 167 134 202 132 29 271 250 241 247 246 250 254 262 265 253 263 268 203 202 215 223 226 221 217 223 224 223 220 217 215 209 202 201 201 199 196 196 197 194 190 188
143 159 137 147 103 94 120 242 269 272 257 244 243 251 253 260 261 254 263 267 230 205 212 224 228 221 221 224 225 224 221 220 216 208 204 203 203 201 200 200 199 196 194
151 170 142 110 109 125 145 183 251 273 283 278 268 265 258 247 252 255 253 247 256 253 211 209 225 227 225 226 228 228 225 221 220 214 210 207 206 205 203 202 201 199 197
153 159 112 95 148 124 52 300 54 311 305 307 281 257 270 262 264 256 263 260 252 256 257 199 210 222 229 230 229 229 228 223 221 220 217 215 212 209 207 206 205 202 200
148 150 131 114 151 114 77 34 358 333 309 308 295 294 272 276 263 263 264 258 257 256 255 253 229 215 219 229 231 229 228 223 221 222 222 221 219 215 210 209 208 206 204
140 152 125 129 186 86 22 329 308 271 292 321 291 277 245 231 247 247 266 283 273 274 273 261 255 254 218 209 217 225 229 227 225 226 226 223 221 220 215 212 211 210 208
165 170 158 187 134 145 165 307 310 311 326 330 313 302 279 206 188 212 251 253 298 283 268 257 266 256 263 241 197 210 222 228 230 228 227 226 224 222 221 218 215 212 212
176 172 181 217 181 231 146 253 280 296 314 311 329 315 310 330 327 190 211 288 305 308 287 283 259 262 262 260 246 205 216 226 230 230 228 227 223 222 224 223 221 218 215
184 183 192 196 227 252 174 238 130 293 293 300 292 297 316 338 308 303 235 209 250 278 306 297 293 270 262 265 252 254 220 235 235 235 233 227 223 223 225 226 225 224 220
184 189 192 200 215 238 234 294 261 283 288 307 316 310 301 272 268 290 302 309 288 281 294 286 291 286 280 266 261 59 20 267 246 241 236 229 225 224 225 228 229 229 225
186 180 193 203 220 235 212 234 252 239 287 313 305 302 297 296 297 295 293 289 297 299 303 300 280 275 271 267 268 50 338 317 293 260 244 237 230 228 229 231 233 233 231
186 172 191 202 218 214 220 233 234 270 259 266 275 288 296 295 300 298 296 299 299 291 280 265 270 281 275 279 259 23 235 269 308 296 265 247 240 234 230 230 232 235 235
185 159 188 200 208 211 220 220 246 234 246 261 271 288 286 283 292 290 295 301 297 292 275 282 294 281 303 292 25 300 262 185 283 293 285 263 247 241 236 232 232 235 235
184 183 196 200 203 210 227 235 250 252 246 252 253 238 261 281 275 285 286 289 295 298 299 295 283 296 293 292 318 289 288 254 273 275 273 268 257 249 241 238 236 235 234
197 196 200 203 206 208 214 234 238 222 243 247 263 283 278 276 281 276 278 278 279 286 292 299 293 296 314 304 275 285 280 263 244 245 252 259 258 253 247 241 239 237 234
193 204 208 211 214 216 217 226 249 239 243 250 251 249 255 276 280 282 273 272 273 276 281 287 289 289 283 281 292 289 280 274 261 214 223 244 253 251 247 244 241 239 237
201 204 211 217 222 222 223 230 242 244 246 251 256 260 261 258 257 269 278 278 278 281 278 285 288 284 278 276 274 277 277 274 277 228 207 233 246 247 244 243 241 239 238
206 209 212 221 226 229 230 234 242 247 250 254 257 259 261 262 261 265 268 273 275 270 270 277 280 284 280 276 280 273 271 269 273 260 218 223 232 238 240 240 238 238 236
210 214 217 223 228 232 234 237 239 245 252 256 257 259 260 259 259 263 262 262 267 275 272 270 275 278 276 272 270 274 274 262 263 273 269 255 232 224 232 234 233 233 233
215 216 222 226 230 233 234 235 243 245 249 255 255 254 255 255 267 266 273 275 272 269 274 275 276 277 277 282 279 284 284 286 272 267 268 263 248 240 228 224 226 227 227
219 221 227 233 236 239 196 208 244 258 255 255 258 259 258 237 234 230 243 256 265 268 272 278 279 280 281 282 282 282 283 282 281 273 272 271 267 262 256 251 224 205 214
217 225 231 235 241 240 203 208 222 250 257 258 259 261 263 263 245 250 235 227 238 242 247 262 273 277 281 280 284 280 275 279 283 290 286 276 271 264 260 255 208 201 214
221 227 234 239 244 241 209 213 217 238 254 257 256 256 258 265 261 257 263 258 253 243 232 233 249 261 266 275 273 272 278 274 267 260 257 265 268 265 262 258 214 204 215
225 231 234 239 244 247 219 214 217 247 251 255 256 257 257 259 252 231 251 260 262 262 249 235 243 254 266 271 269 271 268 268 269 266 250 255 265 267 266 261 242 205 212
228 238 241 243 249 255 237 213 212 250 259 262 260 257 247 244 250 220 241 254 258 261 268 260 236 240 247 246 233 240 255 262 267 269 262 257 263 267 268 260 253 230 217